H1 CPF 2 NER 2021 1 25 9 025 01 glonass131 H2 1301901 9131 39155 2021 1 25 0 0 0 2021 1 28 23 45 0 900 1 1 0 0 0 1 H9 10 0 59239 0.00000 0 2312723.964 11701620.325 22592065.215 10 0 59239 900.00000 0 -409395.719 11019708.825 23040749.407 10 0 59239 1800.00000 0 -3202064.912 10534272.469 23043851.646 10 0 59239 2700.00000 0 -5996575.173 10257271.309 22601072.987 10 0 59239 3600.00000 0 -8723354.856 10188426.668 21720709.892 10 0 59239 4500.00000 0 -11314612.585 10315282.028 20419516.880 10 0 59239 5400.00000 0 -13706918.493 10613789.744 18722408.633 10 0 59239 6300.00000 0 -15843617.387 11049401.148 16662004.994 10 0 59239 7200.00000 0 -17676974.030 11578616.433 14278025.293 10 0 59239 8100.00000 0 -19169960.933 12150931.148 11616541.332 10 0 59239 9000.00000 0 -20297613.118 12711098.932 8729101.363 10 0 59239 9900.00000 0 -21047891.636 13201616.006 5671740.501 10 0 59239 10800.00000 0 -21422017.952 13565322.542 2503895.745 10 0 59239 11700.00000 0 -21434263.388 13748010.181 -712753.591 10 0 59239 12600.00000 0 -21111201.028 13700923.660 -3915496.936 10 0 59239 13500.00000 0 -20490450.679 13383048.265 -7041830.294 10 0 59239 14400.00000 0 -19618969.570 12763083.397 -10030695.050 10 0 59239 15300.00000 0 -18550961.458 11821015.633 -12823691.406 10 0 59239 16200.00000 0 -17345493.643 10549221.771 -15366240.569 10 0 59239 17100.00000 0 -16063924.288 8953052.563 -17608670.831 10 0 59239 18000.00000 0 -14767250.798 7050870.504 -19507204.327 10 0 59239 18900.00000 0 -13513493.333 4873538.678 -21024823.730 10 0 59239 19800.00000 0 -12355225.779 2463381.488 -22132000.969 10 0 59239 20700.00000 0 -11337359.787 -127338.980 -22807273.254 10 0 59239 21600.00000 0 -10495276.052 -2838366.564 -23037655.363 10 0 59239 22500.00000 0 -9853381.597 -5603732.378 -22818880.742 10 0 59239 23400.00000 0 -9424153.053 -8354277.445 -22155467.799 10 0 59239 24300.00000 0 -9207704.729 -11020310.418 -21060611.451 10 0 59239 25200.00000 0 -9191897.548 -13534288.979 -19555903.620 10 0 59239 26100.00000 0 -9352981.818 -15833412.945 -17670889.742 10 0 59239 27000.00000 0 -9656744.100 -17862021.532 -15442471.594 10 0 59239 27900.00000 0 -10060107.307 -19573696.039 -12914169.510 10 0 59239 28800.00000 0 -10513114.296 -20932981.977 -10135259.770 10 0 59239 29700.00000 0 -10961209.499 -21916661.112 -7159805.005 10 0 59239 30600.00000 0 -11347721.137 -22514523.071 -4045597.265 10 0 59239 31500.00000 0 -11616438.720 -22729607.027 -853034.871 10 0 59239 32400.00000 0 -11714177.137 -22577906.307 2356045.060 10 0 59239 33300.00000 0 -11593219.819 -22087550.777 5519556.010 10 0 59239 34200.00000 0 -11213538.981 -21297503.349 8576350.875 10 0 59239 35100.00000 0 -10544700.649 -20255826.641 11467388.220 10 0 59239 36000.00000 0 -9567375.527 -19017593.046 14136854.753 10 0 59239 36900.00000 0 -8274393.163 -17642525.650 16533223.871 10 0 59239 37800.00000 0 -6671295.711 -16192467.901 18610231.629 10 0 59239 38700.00000 0 -4776367.900 -14728786.479 20327753.136 10 0 59239 39600.00000 0 -2620141.137 -13309814.146 21652564.133 10 0 59239 40500.00000 0 -244390.793 -11988437.469 22558974.552 10 0 59239 41400.00000 0 2299333.929 -10809928.253 23029322.908 10 0 59239 42300.00000 0 4951589.156 -9810107.773 23054322.493 10 0 59239 43200.00000 0 7647249.671 -9013919.375 22633252.640 10 0 59239 44100.00000 0 10317967.746 -8434468.749 21773990.634 10 0 59239 45000.00000 0 12894778.327 -8072572.344 20492882.300 10 0 59239 45900.00000 0 15310744.951 -7916833.798 18814451.947 10 0 59239 46800.00000 0 17503538.253 -7944246.712 16770954.954 10 0 59239 47700.00000 0 19417840.713 -8121300.298 14401779.311 10 0 59239 48600.00000 0 21007477.557 -8405543.300 11752705.268 10 0 59239 49500.00000 0 22237184.160 -8747541.958 8875035.303 10 0 59239 50400.00000 0 23083934.564 -9093150.590 5824609.692 10 0 59239 51300.00000 0 23537773.638 -9385999.309 2660725.737 10 0 59239 52200.00000 0 23602115.959 -9570093.240 -555018.684 10 0 59239 53100.00000 0 23293496.920 -9592411.964 -3759934.209 10 0 59239 54000.00000 0 22640785.133 -9405397.020 -6891477.127 10 0 59239 54900.00000 0 21683888.454 -8969219.430 -9888488.761 10 0 59239 55800.00000 0 20472008.097 -8253728.200 -12692410.775 10 0 59239 56700.00000 0 19061515.157 -7239994.242 -15248450.504 10 0 59239 57600.00000 0 17513540.403 -5921381.517 -17506671.362 10 0 59239 58500.00000 0 15891380.835 -4304097.759 -19422985.013 10 0 59239 59400.00000 0 14257834.317 -2407199.764 -20960024.425 10 0 59239 60300.00000 0 12672576.536 -262051.876 -22087879.734 10 0 59239 61200.00000 0 11189692.364 2088739.861 -22784682.051 10 0 59239 62100.00000 0 9855466.535 4592872.932 -23037023.949 10 0 59239 63000.00000 0 8706526.819 7190307.559 -22840209.054 10 0 59239 63900.00000 0 7768417.285 9815556.822 -22198326.898 10 0 59239 64800.00000 0 7054660.261 12400211.038 -21124152.947 10 0 59239 65700.00000 0 6566344.368 14875590.154 -19638877.305 10 0 59239 66600.00000 0 6292253.409 17175412.931 -17771669.030 10 0 59239 67500.00000 0 6209527.773 19238371.628 -15559086.166 10 0 59239 68400.00000 0 6284827.543 21010505.416 -13044344.493 10 0 59239 69300.00000 0 6475945.557 22447274.657 -10276460.603 10 0 59239 70200.00000 0 6733800.012 23515251.295 -7309287.091 10 0 59239 71100.00000 0 7004720.728 24193357.003 -4200459.404 10 0 59239 72000.00000 0 7232931.474 24473599.865 -1010275.427 10 0 59239 72900.00000 0 7363123.068 24361281.419 2199470.343 10 0 59239 73800.00000 0 7343008.876 23874667.909 5366675.632 10 0 59239 74700.00000 0 7125755.599 23044141.613 8430119.750 10 0 59239 75600.00000 0 6672187.945 21910869.379 11330631.433 10 0 59239 76500.00000 0 5952675.532 20525044.984 14012213.950 10 0 59239 77400.00000 0 4948623.761 18943778.981 16423107.207 10 0 59239 78300.00000 0 3653506.817 17228723.699 18516768.177 10 0 59239 79200.00000 0 2073399.653 15443531.294 20252752.527 10 0 59239 80100.00000 0 226986.297 13651249.292 21597482.131 10 0 59239 81000.00000 0 -1854957.145 11911760.198 22524885.149 10 0 59239 81900.00000 0 -4130585.225 10279369.782 23016897.445 10 0 59239 82800.00000 0 -6548471.550 8800642.723 23063816.182 10 0 59239 83700.00000 0 -9049504.047 7512574.273 22664498.776 10 0 59239 84600.00000 0 -11569111.551 6441173.209 21826402.659 10 0 59239 85500.00000 0 -14039732.301 5600514.992 20565463.784 10 0 59240 0.00000 0 -16393424.585 4992305.004 18905814.427 10 0 59240 900.00000 0 -18564513.146 4605971.303 16879343.224 10 0 59240 1800.00000 0 -20492162.694 4419283.917 14525104.250 10 0 59240 2700.00000 0 -22122771.098 4399477.276 11888583.218 10 0 59240 3600.00000 0 -23412082.944 4504829.007 9020833.620 10 0 59240 4500.00000 0 -24326932.818 4686630.641 5977497.541 10 0 59240 5400.00000 0 -24846543.960 4891467.312 2817729.215 10 0 59240 6300.00000 0 -24963325.427 5063710.120 -396958.226 10 0 59240 7200.00000 0 -24683132.030 5148114.774 -3603899.829 10 0 59240 8100.00000 0 -24024974.170 5092414.728 -6740515.193 10 0 59240 9000.00000 0 -23020188.304 4849796.563 -9745548.412 10 0 59240 9900.00000 0 -21711102.291 4381149.909 -12560285.217 10 0 59240 10800.00000 0 -20149251.900 3656993.517 -15129721.397 10 0 59240 11700.00000 0 -18393224.413 2658992.999 -17403657.480 10 0 59240 12600.00000 0 -16506221.578 1381003.430 -19337696.245 10 0 59240 13500.00000 0 -14553446.313 -170409.326 -20894122.079 10 0 59240 14400.00000 0 -12599424.945 -1975992.028 -22042643.946 10 0 59240 15300.00000 0 -10705379.310 -4004371.885 -22760986.945 10 0 59240 16200.00000 0 -8926760.368 -6213145.036 -23035321.022 10 0 59240 17100.00000 0 -7311047.406 -8550439.528 -22860519.067 10 0 59240 18000.00000 0 -5895905.082 -10956886.363 -22240240.383 10 0 59240 18900.00000 0 -4707774.538 -13367915.083 -21186839.246 10 0 59240 19800.00000 0 -3760955.840 -15716276.903 -19721101.887 10 0 59240 20700.00000 0 -3057217.807 -17934689.096 -17871818.667 10 0 59240 21600.00000 0 -2585948.600 -19958489.811 -15675201.410 10 0 59240 22500.00000 0 -2324837.527 -21728192.597 -13174158.747 10 0 59240 23400.00000 0 -2241056.227 -23191834.550 -10417444.955 10 0 59240 24300.00000 0 -2292886.578 -24307021.283 -7458699.991 10 0 59240 25200.00000 0 -2431724.279 -25042585.031 -4355400.186 10 0 59240 26100.00000 0 -2604371.871 -25379788.630 -1167740.574 10 0 59240 27000.00000 0 -2755523.345 -25313027.375 2042529.249 10 0 59240 27900.00000 0 -2830335.162 -24850001.705 5213293.427 10 0 59240 28800.00000 0 -2776975.530 -24011355.549 8283259.745 10 0 59240 29700.00000 0 -2549045.217 -22829797.152 11193129.076 10 0 59240 30600.00000 0 -2107769.038 -21348740.189 13886723.095 10 0 59240 31500.00000 0 -1423866.939 -19620522.335 16312049.935 10 0 59240 32400.00000 0 -479027.074 -17704275.346 18422289.019 10 0 59240 33300.00000 0 733080.413 -15663534.386 20176677.889 10 0 59240 34200.00000 0 2206291.333 -13563684.710 21541285.601 10 0 59240 35100.00000 0 3921959.296 -11469349.914 22489659.297 10 0 59240 36000.00000 0 5849492.511 -9441828.269 23003332.625 10 0 59240 36900.00000 0 7947395.298 -7536681.597 23072186.728 10 0 59240 37800.00000 0 10164773.771 -5801575.125 22694656.899 10 0 59240 38700.00000 0 12443246.150 -4274456.718 21877780.210 10 0 59240 39600.00000 0 14719181.396 -2982150.587 20637081.944 10 0 59240 40500.00000 0 16926176.023 -1939423.897 18996301.199 10 0 59240 41400.00000 0 18997668.505 -1148565.753 16986958.733 10 0 59240 42300.00000 0 20869584.023 -599497.229 14647773.028 10 0 59240 43200.00000 0 22482900.127 -270409.157 12023933.445 10 0 59240 44100.00000 0 23786026.037 -128902.330 9166242.368 10 0 59240 45000.00000 0 24736894.993 -133583.460 6130141.321 10 0 59240 45900.00000 0 25304680.231 -236050.412 2974638.829 10 0 59240 46800.00000 0 25471060.284 -383183.110 -238839.553 10 0 59240 47700.00000 0 25230977.942 -519642.690 -3447656.233 10 0 59240 48600.00000 0 24592858.553 -590471.774 -6589197.110 10 0 59240 49500.00000 0 23578276.431 -543683.649 -9602111.938 10 0 59240 50400.00000 0 22221082.085 -332728.058 -12427533.230 10 0 59240 51300.00000 0 20566026.364 81273.783 -15010247.681 10 0 59240 52200.00000 0 18666939.620 727622.600 -17299795.075 10 0 59240 53100.00000 0 16584543.439 1624546.282 -19251471.132 10 0 59240 54000.00000 0 14383988.356 2778182.455 -20827213.166 10 0 59240 54900.00000 0 12132222.735 4182083.060 -21996350.173 10 0 59240 55800.00000 0 9895304.995 5817262.804 -22736202.139 10 0 59240 56700.00000 0 7735773.365 7652789.790 -23032516.980 10 0 59240 57600.00000 0 5710184.255 9646893.205 -22879737.122 10 0 59240 58500.00000 0 3866922.609 11748540.754 -22281091.557 10 0 59240 59400.00000 0 2244375.243 13899418.619 -21248512.922 10 0 59240 60300.00000 0 869542.156 16036229.910 -19802382.736 10 0 59240 61200.00000 0 -242858.233 18093214.227 -17971111.448 10 0 59240 62100.00000 0 -1090755.306 20004782.223 -15790563.070 10 0 59240 63000.00000 0 -1684551.868 21708154.628 -13303337.125 10 0 59240 63900.00000 0 -2046419.827 23145895.497 -10557923.295 10 0 59240 64800.00000 0 -2209098.897 24268234.483 -7607746.335 10 0 59240 65700.00000 0 -2214251.786 25035082.227 -4510120.640 10 0 59240 66600.00000 0 -2110447.507 25417656.199 -1325135.418 10 0 59240 67500.00000 0 -1950859.504 25399650.905 1885507.737 10 0 59240 68400.00000 0 -1790776.575 24977905.560 5059682.509 10 0 59240 69300.00000 0 -1685031.717 24162543.228 8136028.231 10 0 59240 70200.00000 0 -1685456.870 22976577.263 11055120.866 10 0 59240 71100.00000 0 -1838469.862 21455002.627 13760603.273 10 0 59240 72000.00000 0 -2182893.946 19643410.591 16200254.367 10 0 59240 72900.00000 0 -2748100.454 17596184.432 18326978.326 10 0 59240 73800.00000 0 -3552551.641 15374350.415 20099696.596 10 0 59240 74700.00000 0 -4602804.321 13043172.084 21484127.136 10 0 59240 75600.00000 0 -5893016.241 10669585.876 22453437.459 10 0 59240 76500.00000 0 -7404976.772 8319582.329 22988760.007 10 0 59240 77400.00000 0 -9108662.301 6055639.326 23079560.494 10 0 59240 78300.00000 0 -10963295.537 3934311.760 22723852.203 10 0 59240 79200.00000 0 -12918867.461 2004075.881 21928251.446 10 0 59240 80100.00000 0 -14918061.554 303516.720 20707871.877 10 0 59240 81000.00000 0 -16898503.221 -1140066.658 19086057.940 10 0 59240 81900.00000 0 -18795243.351 -2311579.909 17093960.353 10 0 59240 82800.00000 0 -20543374.496 -3208537.136 14769959.472 10 0 59240 83700.00000 0 -22080671.669 -3840931.635 12158945.279 10 0 59240 84600.00000 0 -23350147.681 -4230577.768 9311465.707 10 0 59240 85500.00000 0 -24302415.306 -4409950.258 6282758.141 10 0 59241 0.00000 0 -24897755.772 -4420568.788 3131681.795 10 0 59241 900.00000 0 -25107804.144 -4310995.615 -80429.170 10 0 59241 1800.00000 0 -24916779.168 -4134530.650 -3290968.061 10 0 59241 2700.00000 0 -24322201.238 -3946702.989 -6437290.513 10 0 59241 3600.00000 0 -23335067.826 -3802666.190 -9457955.189 10 0 59241 4500.00000 0 -21979475.524 -3754610.315 -12293944.365 10 0 59241 5400.00000 0 -20291703.971 -3849302.917 -14889838.310 10 0 59241 6300.00000 0 -18318799.518 -4125866.061 -17194918.358 10 0 59241 7200.00000 0 -16116718.566 -4613886.229 -19164175.003 10 0 59241 8100.00000 0 -13748109.531 -5331939.494 -20759199.783 10 0 59241 9000.00000 0 -11279827.930 -6286596.171 -21948942.426 10 0 59241 9900.00000 0 -8780290.469 -7471948.136 -22710317.893 10 0 59241 10800.00000 0 -6316780.416 -8869679.286 -23028651.519 10 0 59241 11700.00000 0 -3952818.188 -10449676.014 -22897954.151 10 0 59241 12600.00000 0 -1745707.700 -12171151.295 -22321022.846 10 0 59241 13500.00000 0 255639.192 -13984234.085 -21309366.549 10 0 59241 14400.00000 0 2012510.263 -15831956.061 -19882959.697 10 0 59241 15300.00000 0 3497758.756 -17652551.025 -18069830.195 10 0 59241 16200.00000 0 4696672.937 -19381969.517 -15905491.444 10 0 59241 17100.00000 0 5607316.107 -20956502.535 -13432230.964 10 0 59241 18000.00000 0 6240326.203 -22315404.082 -10698270.903 10 0 59241 18900.00000 0 6618186.904 -23403402.944 -7756817.889 10 0 59241 19800.00000 0 6774004.181 -24172999.225 -4665021.520 10 0 59241 20700.00000 0 6749842.519 -24586450.624 -1482862.415 10 0 59241 21600.00000 0 6594693.124 -24617366.825 1728008.455 10 0 59241 22500.00000 0 6362161.159 -24251847.012 4905456.775 10 0 59241 23400.00000 0 6107970.158 -23489114.593 7988055.697 10 0 59241 24300.00000 0 5887388.713 -22341624.192 10916258.352 10 0 59241 25200.00000 0 5752687.213 -20834637.571 13633530.630 10 0 59241 26100.00000 0 5750730.561 -19005286.818 16087423.828 10 0 59241 27000.00000 0 5920806.854 -16901163.876 18230568.206 10 0 59241 27900.00000 0 6292782.011 -14578494.386 20021570.128 10 0 59241 28800.00000 0 6885656.866 -12099970.488 21425797.150 10 0 59241 29700.00000 0 7706586.791 -9532330.700 22416037.505 10 0 59241 30600.00000 0 8750405.228 -6943784.948 22973022.426 10 0 59241 31500.00000 0 9999672.059 -4401389.165 23085801.863 10 0 59241 32400.00000 0 11425246.616 -1968475.854 22751966.436 10 0 59241 33300.00000 0 12987363.860 297755.016 21977710.749 10 0 59241 34200.00000 0 14637171.580 2348386.372 20777735.642 10 0 59241 35100.00000 0 16318667.511 4144587.464 19174989.481 10 0 59241 36000.00000 0 17970958.267 5658995.674 17200251.317 10 0 59241 36900.00000 0 19530748.097 6876618.807 14891561.575 10 0 59241 37800.00000 0 20934954.999 7795219.346 12293508.864 10 0 59241 38700.00000 0 22123345.470 8425163.431 9456384.490 10 0 59241 39600.00000 0 23041077.105 8788739.495 6435219.351 10 0 59241 40500.00000 0 23641041.185 8918974.055 3288720.702 10 0 59241 41400.00000 0 23885904.769 8857993.748 78128.950 10 0 59241 42300.00000 0 23749763.756 8655002.492 -3133982.915 10 0 59241 43200.00000 0 23219334.461 8363959.794 -6284942.932 10 0 59241 44100.00000 0 22294630.613 8041059.649 -9313221.225 10 0 59241 45000.00000 0 20989094.773 7742118.709 -12159652.190 10 0 59241 45900.00000 0 19329176.666 7519986.731 -14768611.783 10 0 59241 46800.00000 0 17353375.004 7422091.693 -17089124.706 10 0 59241 47700.00000 0 15110782.719 7488226.206 -19075877.751 10 0 59241 48600.00000 0 12659197.125 7748671.338 -20690117.941 10 0 59241 49500.00000 0 10062875.212 8222739.190 -21900416.751 10 0 59241 50400.00000 0 7390029.618 8917797.095 -22683284.901 10 0 59241 51300.00000 0 4710171.484 9828815.305 -23023625.722 10 0 59241 52200.00000 0 2091412.561 10938457.170 -22915018.795 10 0 59241 53100.00000 0 -402159.782 12217707.332 -22359829.280 10 0 59241 54000.00000 0 -2712924.900 13627010.357 -21369142.142 10 0 59241 54900.00000 0 -4791887.187 15117870.518 -19962524.078 10 0 59241 55800.00000 0 -6600461.553 16634843.935 -18167619.430 10 0 59241 56700.00000 0 -8111813.701 18117838.018 -16019589.595 10 0 59241 57600.00000 0 -9311701.978 19504620.501 -13560408.360 10 0 59241 58500.00000 0 -10198788.792 20733432.011 -10838028.304 10 0 59241 59400.00000 0 -10784412.032 21745592.267 -7905435.634 10 0 59241 60300.00000 0 -11091829.581 22487990.854 -4819612.666 10 0 59241 61200.00000 0 -11154971.707 22915358.774 -1640428.774 10 0 59241 62100.00000 0 -11016756.494 22992226.729 1570518.447 10 0 59241 63000.00000 0 -10727041.123 22694489.424 4751089.500 10 0 59241 63900.00000 0 -10340296.433 22010511.895 7839794.201 10 0 59241 64800.00000 0 -9913103.084 20941733.009 10776965.654 10 0 59241 65700.00000 0 -9501574.390 19502741.980 13505895.524 10 0 59241 66600.00000 0 -9158813.381 17720825.482 15973910.117 10 0 59241 67500.00000 0 -8932509.696 15635004.262 18133368.254 10 0 59241 68400.00000 0 -8862775.882 13294598.842 19942563.495 10 0 59241 69300.00000 0 -8980312.573 10757382.694 21366515.029 10 0 59241 70200.00000 0 -9304978.552 8087397.785 22377633.550 10 0 59241 71100.00000 0 -9844825.231 5352520.714 22956250.482 10 0 59241 72000.00000 0 -10595636.312 2621877.836 23091001.001 10 0 59241 72900.00000 0 -11540992.960 -36786.195 22779053.601 10 0 59241 73800.00000 0 -12652863.640 -2559679.919 22026181.208 10 0 59241 74700.00000 0 -13892696.303 -4889371.953 20846671.313 10 0 59241 75600.00000 0 -15212970.006 -6976934.899 19263075.115 10 0 59241 76500.00000 0 -16559143.873 -8783737.979 17305798.339 10 0 59241 77400.00000 0 -17871924.312 -10282813.785 15012539.280 10 0 59241 78300.00000 0 -19089757.507 -11459741.607 12427582.501 10 0 59241 79200.00000 0 -20151443.836 -12313009.316 9600959.614 10 0 59241 80100.00000 0 -20998764.666 -12853837.302 6587491.655 10 0 59241 81000.00000 0 -21579010.367 -13105470.485 3445730.418 10 0 59241 81900.00000 0 -21847301.496 -13101967.104 236818.750 10 0 59241 82800.00000 0 -21768602.958 -12886534.700 -2976707.700 10 0 59241 83700.00000 0 -21319343.374 -12509483.578 -6132153.015 10 0 59241 84600.00000 0 -20488568.302 -12025885.058 -9167902.303 10 0 59241 85500.00000 0 -19278575.803 -11493035.012 -12024645.428 10 0 59242 0.00000 0 -17705005.134 -10967832.126 -14646557.069 10 0 59242 900.00000 0 -15796372.595 -10504184.587 -16982408.129 10 0 59242 1800.00000 0 -13593074.149 -10150556.599 -18986583.988 10 0 59242 2700.00000 0 -11145894.820 -9947762.673 -20619988.930 10 0 59242 3600.00000 0 -8514089.360 -9927103.100 -21850817.376 10 0 59242 4500.00000 0 -5763114.782 -10108922.190 -22655176.346 10 0 59242 5400.00000 0 -2962111.252 -10501650.300 -23017547.050 10 0 59242 6300.00000 0 -181237.761 -11101370.276 -22931077.066 10 0 59242 7200.00000 0 2511024.998 -11891925.894 -22397698.361 10 0 59242 8100.00000 0 5050491.518 -12845566.513 -21428070.159 10 0 59242 9000.00000 0 7379699.098 -13924099.228 -20041349.278 10 0 59242 9900.00000 0 9450045.709 -15080498.235 -18264794.042 10 0 59242 10800.00000 0 11223550.609 -16260901.928 -16133211.149 10 0 59242 11700.00000 0 12674166.532 -17406912.208 -13688257.754 10 0 59242 12600.00000 0 13788591.484 -18458098.084 -10977613.810 10 0 59242 13500.00000 0 14566549.501 -19354597.581 -8054041.918 10 0 59242 14400.00000 0 15020532.017 -20039708.411 -4974353.842 10 0 59242 15300.00000 0 15175013.956 -20462358.804 -1798304.435 10 0 59242 16200.00000 0 15065180.393 -20579355.518 1412565.318 10 0 59242 17100.00000 0 14735219.653 -20357315.746 4596113.838 10 0 59242 18000.00000 0 14236256.212 -19774203.184 7690790.497 10 0 59242 18900.00000 0 13624011.217 -18820405.199 10636810.983 10 0 59242 19800.00000 0 12956289.057 -17499307.094 13377295.014 10 0 59242 20700.00000 0 12290395.027 -15827340.237 15859345.803 10 0 59242 21600.00000 0 11680591.405 -13833502.223 18035052.208 10 0 59242 22500.00000 0 11175697.286 -11558368.613 19862396.052 10 0 59242 23400.00000 0 10816931.277 -9052636.297 21306048.783 10 0 59242 24300.00000 0 10636086.098 -6375257.217 22338043.764 10 0 59242 25200.00000 0 10654110.590 -3591237.564 22938312.410 10 0 59242 26100.00000 0 10880158.111 -769191.073 23095074.535 10 0 59242 27000.00000 0 11311141.516 2021255.046 22805075.559 10 0 59242 27900.00000 0 11931814.439 4712096.865 22073665.471 10 0 59242 28800.00000 0 12715377.257 7239526.211 20914716.874 10 0 59242 29700.00000 0 13624584.675 9546334.085 19350382.021 10 0 59242 30600.00000 0 14613311.071 11584046.425 17410691.329 10 0 59242 31500.00000 0 15628510.512 13314703.736 15132998.806 10 0 59242 32400.00000 0 16612491.344 14712210.149 12561282.656 10 0 59242 33300.00000 0 17505411.377 15763194.698 9745312.338 10 0 59242 34200.00000 0 18247889.408 16467347.341 6739696.460 10 0 59242 35100.00000 0 18783622.882 16837214.174 3602828.688 10 0 59242 36000.00000 0 19061900.159 16897459.052 395751.599 10 0 59242 36900.00000 0 19039899.348 16683621.621 -2819039.189 10 0 59242 37800.00000 0 18684673.991 16240423.748 -5978826.405 10 0 59242 38700.00000 0 17974738.665 15619696.075 -9021912.568 10 0 59242 39600.00000 0 16901184.481 14878013.349 -11888845.197 10 0 59242 40500.00000 0 15468274.526 14074140.159 -14523599.686 10 0 59242 41400.00000 0 13693491.756 13266397.279 -16874694.562 10 0 59242 42300.00000 0 11607035.717 12510062.400 -18896215.146 10 0 59242 43200.00000 0 9250788.345 11854917.515 -20548724.035 10 0 59242 44100.00000 0 6676792.130 11343048.713 -21800039.376 10 0 59242 45000.00000 0 3945305.046 11006992.878 -22625865.073 10 0 59242 45900.00000 0 1122514.618 10868310.399 -23010260.590 10 0 59242 46800.00000 0 -1721992.153 10936644.246 -22945941.659 10 0 59242 47700.00000 0 -4517896.147 11209304.453 -22434406.947 10 0 59242 48600.00000 0 -7196838.694 11671394.278 -21485889.523 10 0 59242 49500.00000 0 -9695026.822 12296470.959 -20119135.563 10 0 59242 50400.00000 0 -11955642.810 13047711.185 -18361016.275 10 0 59242 51300.00000 0 -13930958.732 13879530.099 -16245982.217 10 0 59242 52200.00000 0 -15584069.593 14739583.654 -13815372.179 10 0 59242 53100.00000 0 -16890175.073 15571068.326 -11116591.520 10 0 59242 54000.00000 0 -17837359.291 16315220.140 -8202177.095 10 0 59242 54900.00000 0 -18426839.143 16913907.068 -5128767.854 10 0 59242 55800.00000 0 -18672674.049 17312205.561 -1956001.777 10 0 59242 56700.00000 0 -18600952.289 17460853.160 1254639.177 10 0 59242 57600.00000 0 -18248490.725 17318474.846 4441013.814 10 0 59242 58500.00000 0 -17661104.431 16853490.667 7541513.568 10 0 59242 59400.00000 0 -16891520.205 16045625.765 10496239.252 10 0 59242 60300.00000 0 -15997022.049 14886960.562 13248141.177 10 0 59242 61200.00000 0 -15036927.177 13382478.008 15744101.972 10 0 59242 62100.00000 0 -14069997.560 11550085.311 17935942.965 10 0 59242 63000.00000 0 -13151894.114 9420108.985 19781336.521 10 0 59242 63900.00000 0 -12332778.543 7034283.357 21244608.434 10 0 59242 64800.00000 0 -11655161.588 4444272.927 22297416.557 10 0 59242 65700.00000 0 -11152086.251 1709787.716 22919293.785 10 0 59242 66600.00000 0 -10845721.023 -1103632.851 23098045.698 10 0 59242 67500.00000 0 -10746421.594 -3927078.655 22829995.354 10 0 59242 68400.00000 0 -10852300.632 -6690871.278 22120070.056 10 0 59242 69300.00000 0 -11149324.730 -9327204.863 20981727.300 10 0 59242 70200.00000 0 -11611936.141 -11772718.210 19436719.669 10 0 59242 71100.00000 0 -12204175.401 -13970892.943 17514701.054 10 0 59242 72000.00000 0 -12881260.020 -15874178.733 15252679.481 10 0 59242 72900.00000 0 -13591555.133 -17445757.151 12694324.662 10 0 59242 73800.00000 0 -14278854.994 -18660869.800 9889141.389 10 0 59242 74700.00000 0 -14884880.301 -19507653.846 6891523.006 10 0 59242 75600.00000 0 -15351886.320 -19987448.341 3759701.988 10 0 59242 76500.00000 0 -15625270.970 -20114556.804 554617.394 10 0 59242 77400.00000 0 -15656071.115 -19915474.573 -2661278.547 10 0 59242 78300.00000 0 -15403239.143 -19427612.542 -5825250.633 10 0 59242 79200.00000 0 -14835600.669 -18697570.812 -8875522.230 10 0 59242 80100.00000 0 -13933407.459 -17779035.598 -11752501.894 10 0 59242 81000.00000 0 -12689416.869 -16730389.399 -14399968.957 10 0 59242 81900.00000 0 -11109449.446 -15612137.191 -16766192.700 10 0 59242 82800.00000 0 -9212399.054 -14484259.542 -18804961.095 10 0 59242 83700.00000 0 -7029693.655 -13403606.724 -20476497.354 10 0 59242 84600.00000 0 -4604228.655 -12421445.933 -21748245.160 10 0 59242 85500.00000 0 -1988817.720 -11581266.830 -22595506.527 99